Terminal Aerodrome Forecast
Issued by NWS

Home | Current Version | Previous Version | Text Only | Print | Product List | Glossary On
Versions: 1 2 3 4 5 6 7 8 9 10 11 12 13 14 15 16 17 18 19 20 21 22 23 24 25 26 27 28
000
FTUS43 KDLH 281400 AAB
TAFHYR
TAF AMD
KHYR 281424Z 2814/2912 25005KT 5SM -SHRA BR OVC012
      TEMPO 2814/2817 24005G15KT OVC006
     FM281700 26011G19KT P6SM VCSH OVC015
     FM282000 27014G24KT P6SM VCSH OVC025
     FM290300 28010G18KT P6SM VCSH OVC020=

USA.gov is the U.S. government's official web portal to all federal, state and local government web resources and services.